Location: Ammerl�gen
(47.2167°N, 9.6000°E)
Time: 12:46:25
(UTC+00:00)

Cosmos 676 Rocket - Pass Details

Date: 03 August 2021
Orbit: 755 x 783 km, 74.0° (Epoch: 26 September)

Event Time Altitude Azimuth Distance (km) Brightness Sun altitude
Exits shadow 02:29:52 15° 255° (WSW) 1,999 5.6 -13.5°
Maximum altitude 02:33:16 28° 305° (NW) 1,443 5.3 -13.1°
Drops below altitude 10° 02:37:50 10° 4° (N) 2,347 7.2 -12.6°
Sets 02:40:34 0° 16° (NNE) 3,277 8.4 -12.2°
